ATLAS 5 CENTAUR DEB, 44646

Orbit data source: Space-Track

ATLAS 5 CENTAUR DEB, 44646 is space debris in HEO originally from a launch on Wed, 17 Oct 2018 UTC launched from the Air Force Eastern Test Range (AFETR). Debris objects in space refer to the collection of defunct objects orbiting the Earth. Examples of debris include non-operational satellites, rocket bodies, and fragments generated from explosions, collisions, or faulty payload assembly.

Loading next visibility...
Identifier
44646, 2018-079G
Orbit
HEO
Country
Flag of USUS
Related business
Flag of USUnited Launch Alliance/Lockheed Martin (US)
Manufacturer
ULA Decatur
Mission
Spacecraft
Bus & Motor
Unknown
Mass
Unknown
Launch date (UTC)
2018-10-17 (7 years ago)
Launch vehicle
Unknown
Launch site
Air Force Eastern Test Range (AFETR)
Object type
Payload
Rocket body
Debris
Shape & HBR
Unknown shape, 1.1 m
Radar Cross Section
RCS unknown

Expand to show TLE details & history
Last TLE update: 2 days ago

TLE from 2 days ago
0 ATLAS 5 CENTAUR DEB
1 44646U 18079G   25345.28183022 -.00000089  00000-0  00000+0 0  9991
2 44646  13.5987  33.1176 4736789 315.5537  14.9614  1.86003074 48548
Epoch: 2025-12-11T06:45Z
TLE epoch observation values (Epoch: 2025-12-11T06:45:50.131Z)
Latitude
Longitude
-148.61058°
Altitude
9,836.023 km
Speed
5.907 km/s
True Right ascension
02h 12m 21s
True Declination
0° 00' 00"
Sunlit
Object was in daylight at epoch
Visualization orbit readout
Latitude
Unknown
Longitude
Unknown
Altitude
Unknown
Speed
Unknown
Apparent Right ascension
Unknown
Apparent Declination
Unknown
Sunlit
N/A
Visualization observer readout
Local Sidereal Time
10:44:59
Azimuth
Unknown
Elevation
Unknown
Doppler factor
Unknown
Orbital elements
Apogee altitude
34,783.359 km
Perigee altitude
8,322.598 km
Semi-major axis
27,931.115 km
Eccentricity
0.47368
Inclination
13.5987°
RAAN
33.1176°
Arg. of periapsis
315.5537°
True anomaly
44.51598°
Mean anomaly
14.9614°
Eccentric anomaly
27.48821°
Mean motion
0.46495 °/min
Orbital period
774.27 mins
BSTAR
0
Loading maneuver chart data...
Computing Atmospheric mass density...

Documentation

Showing up to 5 results
|